Tracking 28790 objects as of 19-Apr-2024
HD Live streaming from Space Station
objects crossing your sky now

CZ-4 DEB

Track CZ-4 DEB now!
10-day predictions


NORAD ID: 20797
Int'l Code: 1990-081G
Perigee: 841.7 km
Apogee: 852.0 km
Inclination: 98.7 °
Period: 101.7 minutes
Semi major axis: 7217 km
RCS: 0.065 m2 (small)
Launch date: September 3, 1990
Source: People's Republic of China (PRC)
Launch site: Taiyaun Space Center, China (TSC)

Note: This is SATELLITE DEBRIS
Your satellite tracking list
Your tracking list is empty




NASA's NSSDC Master Catalog

Two Line Element Set (TLE):
1 20797U 90081G   24109.73547582  .00002729  00000-0  14116-2 0  9995
2 20797  98.7329  95.4680 0007144 229.3057 183.6255 14.15763425729872
Source of the keplerian elements: AFSPC